Weather observations for the past three days for
Joplin, Joplin Regional Airport
Imperial (Metric)
Date Time (cdt) Wind (mph) Vis. (mi.) Weather Sky Cond. Temperature (ºF) Relative Humidity Wind Chill (°F) Heat Index (°F) Pressure Precipitation (in)
Air Dwpt 6 hour altimeter (in) sea level (mb) 1 hr 3 hr 6 hr
Max. Min.
24 00:53 S 6 10.00 Fair CLR 80.1 68 93.9 80.1 67% 83 29.92 1011.8
23 23:53 SE 6 10.00 Fair CLR 82 69.1 65% 85 29.92 1011.9
23 22:53 SE 6 10.00 Fair CLR 81 68 65% 84 29.92 1011.9
23 21:53 SE 5 10.00 Fair CLR 84 66.9 57% 87 29.92 1011.6
23 20:53 E 6 10.00 Fair CLR 86 66 51% 88 29.91 1011.3
23 19:53 NE 6 10.00 Fair CLR 90 68 48% 94 29.9 1011.2
23 18:53 NE 6 10.00 Fair CLR 93 66.9 97 91 42% 97 29.9 1011.1
23 17:53 N 6 10.00 Fair CLR 95 66 39% 98 29.9 1011.1
23 16:53 NE 7 10.00 Fair CLR 95 66.9 40% 99 29.92 1011.6
23 15:53 N 6 10.00 Fair CLR 95 68 41% 100 29.92 1011.7
23 14:53 N 6 10.00 Fair CLR 93.9 70 46% 100 29.93 1012.2
23 13:53 N 6 10.00 Fair CLR 93 69.1 46% 98 29.95 1012.6
23 12:53 NE 7 10.00 Partly Cloudy FEW110 SCT210 91 72 91 79 54% 99 29.96 1013.1
23 11:53 NE 8 10.00 Partly Cloudy FEW028 SCT110 89.1 73 59% 97 29.96 1013.2
23 10:53 N 9 10.00 Partly Cloudy FEW045 SCT100 87.1 73 63% 95 29.96 1013.3
23 09:53 N 8 10.00 Partly Cloudy FEW100 SCT210 86 72 63% 92 29.95 1013.0
23 08:53 NW 6 10.00 Partly Cloudy SCT210 82 71.1 69% 86 29.95 1012.8
23 07:53 W 5 10.00 Partly Cloudy SCT210 81 71.1 72% 85 29.95 1012.7
23 06:53 SW 5 10.00 Partly Cloudy SCT210 79 70 82.9 78.1 74% 82 29.94 1012.3
23 05:53 SW 6 10.00 Partly Cloudy FEW037 SCT210 79 69.1 72% 82 29.92 1012.0
23 04:53 SW 9 10.00 A Few Clouds FEW080 80.1 69.1 69% 83 29.91 1011.5
23 03:53 W 6 10.00 Fair CLR 80.1 69.1 69% 83 29.92 1011.6
23 02:53 SW 10 10.00 Mostly Cloudy BKN075 BKN090 82 68 63% 85 29.9 1011.0
23 01:53 SW 10 10.00 Fair CLR 82 69.1 65% 85 29.9 1011.0
23 00:53 SW 12 G 23 10.00 A Few Clouds FEW090 82.9 69.1 91 82.9 63% 87 29.9 1010.9
22 23:53 S 15 10.00 Fair CLR 84 69.1 61% 88 29.89 1010.8
22 22:53 S 18 G 25 10.00 Fair CLR 84 70 63% 88 29.9 1011.0
22 21:53 S 16 G 23 10.00 Fair CLR 84.9 70 61% 89 29.89 1010.7
22 20:53 S 12 10.00 Fair CLR 86 70 59% 91 29.88 1010.3
22 19:53 S 17 G 26 10.00 Fair CLR 88 70 55% 93 29.89 1010.7
22 18:53 S 15 10.00 Fair CLR 91 70 93.9 90 50% 97 29.9 1011.1
22 17:53 S 22 G 30 10.00 Fair and Breezy CLR 91.9 69.1 47% 97 29.9 1011.4
22 16:53 SW 16 G 32 10.00 Fair CLR 93 69.1 46% 98 29.92 1011.7
22 15:53 S 21 G 32 10.00 A Few Clouds and Breezy FEW050 93 69.1 46% 98 29.94 1012.4
22 14:53 S 17 G 26 10.00 A Few Clouds FEW050 93 69.1 46% 98 29.96 1013.1
22 13:53 S 17 G 28 10.00 A Few Clouds FEW090 93 69.1 46% 98 29.97 1013.6
22 12:53 S 17 G 29 10.00 Partly Cloudy FEW044 SCT100 91 69.1 91.9 75.9 49% 96 29.99 1014.2
22 11:53 SW 21 G 30 10.00 Mostly Cloudy and Breezy FEW038 SCT095 BKN250 91 69.1 49% 96 30.01 1014.9
22 10:53 S 20 G 29 10.00 Partly Cloudy SCT095 SCT250 87.1 69.1 55% 91 30.02 1015.3
22 09:53 SW 22 G 31 10.00 Partly Cloudy and Breezy SCT095 SCT250 84.9 66.9 55% 88 30.03 1015.6
22 08:53 SW 18 G 26 10.00 Partly Cloudy SCT250 82 66 58% 84 30.04 1015.9
22 07:53 S 14 G 24 10.00 Partly Cloudy SCT250 80.1 66 62% 82 30.04 1016.0
22 06:53 S 14 10.00 Mostly Cloudy BKN250 75.9 64.9 77 73 69% 78 30.05 1016.3
22 05:53 S 10 10.00 Partly Cloudy SCT250 73.9 64.9 74% 30.06 1016.5
22 04:53 S 9 10.00 Fair CLR 73.9 64.9 74% 30.06 1016.8
22 03:53 S 12 10.00 Fair CLR 75 64.9 71% 77 30.07 1016.8
22 02:53 S 8 10.00 Fair CLR 73.9 64.9 74% 30.07 1017.1
22 01:53 S 8 10.00 Fair CLR 75 64.9 71% 77 30.07 1017.2
22 00:53 S 10 10.00 Fair CLR 75.9 64 88 75 67% 78 30.08 1017.4
21 23:53 S 9 10.00 Fair CLR 75.9 64 67% 78 30.08 1017.4
21 21:53 S 7 10.00 Fair CLR 78.1 64.9 64% 80 30.07 1017.0
21 20:53 S 7 10.00 Fair CLR 80.1 66 62% 82 30.06 1016.8
21 19:53 S 13 10.00 Fair CLR 84.9 64.9 51% 87 30.08 1017.3
21 18:53 S 10 10.00 A Few Clouds FEW050 88 66 91.9 87.1 48% 90 30.09 1017.7
21 17:53 S 13 10.00 Fair CLR 90 66.9 47% 93 30.1 1017.9
21 16:53 S 10 10.00 Partly Cloudy SCT055 89.1 66.9 48% 92 30.11 1018.5
21 15:53 S 9 10.00 Mostly Cloudy BKN047 88 66.9 50% 91 30.13 1019.1
21 14:53 S 9 10.00 Mostly Cloudy BKN045 91 69.1 49% 96 30.15 1019.6
21 13:53 S 8 10.00 A Few Clouds FEW045 FEW060 90 66.9 47% 93 30.17 1020.5
21 12:53 SW 15 G 22 10.00 Partly Cloudy FEW060 SCT120 89.1 68 89.1 75.9 50% 93 30.19 1021.1
21 11:53 SW 17 10.00 Partly Cloudy SCT060 SCT110 88 69.1 54% 92 30.21 1021.8
21 10:53 S 16 10.00 Mostly Cloudy SCT055 BKN100 84.9 68 57% 88 30.23 1022.4
21 09:53 S 13 10.00 Mostly Cloudy BKN065 BKN095 82.9 68 61% 86 30.23 1022.5
21 08:53 S 14 10.00 Mostly Cloudy BKN060 82 68 63% 85 30.23 1022.5
21 06:53 S 9 10.00 Partly Cloudy SCT060 SCT120 75.9 66 79 75.9 72% 77 30.22 1022.1
21 05:53 S 10 10.00 Partly Cloudy SCT080 75.9 66 72% 77 30.22 1022.1
21 04:53 S 12 10.00 Partly Cloudy SCT085 77 66.9 71% 79 30.22 1022.0
21 03:53 S 9 10.00 Partly Cloudy FEW047 SCT060 77 68 74% 79 30.21 1021.8
21 02:53 SE 6 10.00 A Few Clouds FEW085 77 69.1 77% 79 30.21 1021.7
21 01:53 SE 6 10.00 Fair CLR 78.1 69.1 74% 80 30.22 1022.0
Date Time (cdt) Wind (mph) Vis. (mi.) Weather Sky Cond. Air Dwpt Max. Min. Relative Humidity Wind Chill (°F) Heat Index (°F) altimeter (in) sea level (mb) 1 hr 3 hr 6 hr
6 hour
Temperature (ºF) Pressure Precipitation (in)